Location: Central Falls
(41.8900°N, 71.3929°W)
Time: 12:45:10
(UTC+00:00)

A-11 Canister half - Pass Details

Date: 03 December 2023
Orbit: 1526 x 1682 km, 47.3° (Epoch: 20 February)

Event Time Altitude Azimuth Distance (km) Brightness Sun altitude
Rises 03:10:38 0° 274° (W) 4,930 11.9 -63.4°
Enters shadow 03:13:45 10° 278° (W) 3,974 11.3 -63.8°
Reaches altitude 10° 03:13:53 10° 278° (W) 3,935 - -63.9°
Maximum altitude 03:23:55 64° 359° (N) 1,792 - -65.2°
Drops below altitude 10° 03:33:42 10° 81° (E) 3,835 - -66.3°
Sets 03:36:49 0° 85° (E) 4,799 - -66.7°
